Location: Bailleul
(50.3375°N, 2.8513°E)
Time: 13:56:47
(UTC+00:00)

Cosmos 2285 Rocket - Pass Details

Date: 16 June 2021
Orbit: 971 x 998 km, 74.0° (Epoch: 29 July)

Event Time Altitude Azimuth Distance (km) Brightness Sun altitude
Rises 20:36:19 0° 197° (SSW) 3,706 6.7 -4.8°
Reaches altitude 10° 20:38:51 10° 196° (SSW) 2,761 6.1 -5.1°
Maximum altitude 20:45:16 79° 111° (ESE) 1,021 4.1 -5.8°
Drops below altitude 10° 20:51:43 10° 26° (NNE) 2,772 6.7 -6.5°
Sets 20:54:16 0° 26° (NNE) 3,722 7.4 -6.7°
